TimeMDT,TemperatureF,Dew PointF,Humidity,Sea Level PressureIn,VisibilityMPH,Wind Direction,Wind SpeedMPH,Gust SpeedMPH,PrecipitationIn,Events,Conditions,WindDirDegrees,DateUTC
12:53 AM,42.1,32.0,67,30.22,10.0,East,6.9,-,N/A,,Clear,90,2013-03-13 06:53:00
1:53 AM,44.1,32.0,63,30.21,10.0,ESE,6.9,-,N/A,,Clear,110,2013-03-13 07:53:00
2:53 AM,42.1,30.9,65,30.22,10.0,East,4.6,-,N/A,,Clear,90,2013-03-13 08:53:00
3:53 AM,39.0,32.0,76,30.23,10.0,NE,6.9,-,N/A,,Clear,40,2013-03-13 09:53:00
4:53 AM,37.9,30.9,76,30.22,10.0,NE,6.9,-,N/A,,Clear,40,2013-03-13 10:53:00
5:53 AM,39.0,32.0,76,30.22,10.0,NE,8.1,-,N/A,,Clear,50,2013-03-13 11:53:00
6:53 AM,37.9,32.0,79,30.24,10.0,NE,5.8,-,N/A,,Clear,50,2013-03-13 12:53:00
7:53 AM,37.9,32.0,79,30.26,10.0,ENE,8.1,-,N/A,,Partly Cloudy,60,2013-03-13 13:53:00
8:53 AM,44.1,33.1,65,30.27,10.0,ENE,6.9,-,N/A,,Clear,60,2013-03-13 14:53:00
9:53 AM,48.0,35.1,61,30.27,10.0,NE,8.1,-,N/A,,Clear,40,2013-03-13 15:53:00
10:53 AM,53.1,35.1,50,30.27,10.0,NE,9.2,-,N/A,,Clear,50,2013-03-13 16:53:00
11:53 AM,57.0,36.0,45,30.27,10.0,NE,9.2,-,N/A,,Clear,40,2013-03-13 17:53:00
12:53 PM,62.1,33.1,34,30.25,10.0,Variable,4.6,-,N/A,,Clear,0,2013-03-13 18:53:00
1:53 PM,64.0,27.0,25,30.22,10.0,Variable,3.5,-,N/A,,Clear,0,2013-03-13 19:53:00
2:53 PM,64.9,25.0,22,30.20,10.0,Variable,3.5,-,N/A,,Clear,0,2013-03-13 20:53:00
3:53 PM,68.0,24.1,19,30.18,10.0,WNW,4.6,-,N/A,,Clear,300,2013-03-13 21:53:00
4:53 PM,68.0,24.1,19,30.18,10.0,WNW,3.5,-,N/A,,Clear,300,2013-03-13 22:53:00
5:53 PM,68.0,25.0,20,30.17,10.0,WNW,5.8,-,N/A,,Clear,290,2013-03-13 23:53:00
6:53 PM,63.0,27.0,26,30.18,10.0,NW,4.6,-,N/A,,Clear,320,2013-03-14 00:53:00
7:53 PM,54.0,28.9,38,30.20,10.0,North,4.6,-,N/A,,Clear,10,2013-03-14 01:53:00
8:53 PM,53.1,28.9,40,30.19,10.0,North,6.9,-,N/A,,Clear,10,2013-03-14 02:53:00
9:53 PM,50.0,28.9,44,30.19,10.0,NE,8.1,-,N/A,,Clear,50,2013-03-14 03:53:00
10:53 PM,48.9,28.0,44,30.19,10.0,East,10.4,-,N/A,,Clear,90,2013-03-14 04:53:00
11:53 PM,48.9,28.0,44,30.19,10.0,East,8.1,-,N/A,,Clear,100,2013-03-14 05:53:00